FW8134 Weather Reports


time (UTC)temp
C
wind
direction
speed
KPH
gust
KPH
rain 1hr
cm
rain 24hr
cm
rain mn
cm
humidity
%
barometer
mb
20260509151520 23 99 4.8 9.7 0.00 0.00 0.00 51 994.0
20260509150516 24 187 4.8 12.9 0.00 0.00 0.00 51 994.2
20260509145537 23 103 4.8 11.3 0.00 0.00 0.00 52 994.3
20260509144518 23 158 6.4 16.1 0.00 0.00 0.00 54 994.4
20260509143520 23 53 8.0 17.7 0.00 0.00 0.00 53 994.2
20260509142516 22 47 6.4 16.1 0.00 0.00 0.00 55 994.3
20260509141517 23 92 6.4 16.1 0.00 0.00 0.00 53 994.3
20260509140518 23 176 4.8 9.7 0.00 0.00 0.00 50 994.2
20260509135519 23 60 4.8 19.3 0.00 0.00 0.00 50 994.2
20260509134515 23 199 3.2 8.0 0.00 0.00 0.00 51 994.2
20260509133517 23 161 6.4 16.1 0.00 0.00 0.00 51 994.3
20260509132538 23 114 6.4 14.5 0.00 0.00 0.00 53 994.5
20260509131519 22 33 6.4 16.1 0.00 0.00 0.00 54 994.5
20260509130520 22 35 8.0 16.1 0.00 0.00 0.00 55 994.5
20260509125516 22 37 4.8 16.1 0.00 0.00 0.00 54 994.5
20260509124518 22 88 4.8 12.9 0.00 0.00 0.00 54 994.6
20260509123519 23 153 4.8 14.5 0.00 0.00 0.00 54 994.7
20260509122540 22 119 3.2 8.0 0.00 0.00 0.00 56 994.8
20260509121516 22 37 8.0 20.9 0.00 0.00 0.00 57 994.9
20260509120517 22 62 3.2 11.3 0.00 0.00 0.00 57 995.1
20260509115518 21 29 8.0 14.5 0.00 0.00 0.00 59 995.1
20260509114539 21 92 3.2 8.0 0.00 0.00 0.00 60 995.2
20260509113515 21 92 4.8 12.9 0.00 0.00 0.00 61 995.4
20260509112517 21 106 4.8 12.9 0.00 0.00 0.00 60 995.5
20260509111518 21 180 4.8 12.9 0.00 0.00 0.00 61 995.6
20260509110519 21 144 3.2 9.7 0.00 0.00 0.00 62 995.7
20260509105515 21 180 4.8 16.1 0.00 0.00 0.00 61 995.7
20260509104516 21 108 4.8 11.3 0.00 0.00 0.00 63 995.8
20260509103537 20 114 1.6 8.0 0.00 0.00 0.00 66 996.0
20260509102519 20 80 4.8 11.3 0.00 0.00 0.00 66 996.0
20260509101540 20 58 3.2 8.0 0.00 0.00 0.00 67 996.0
20260509100521 18 26 6.4 16.1 0.00 0.00 0.00 67 996.1
20260509095517 18 37 8.0 14.5 0.00 0.00 0.00 69 996.0
20260509094518 18 42 4.8 16.1 0.00 0.00 0.00 69 996.1
20260509093539 18 35 6.4 12.9 0.00 0.00 0.00 69 996.1
20260509092520 18 56 6.4 14.5 0.00 0.00 0.00 70 996.2
20260509091516 17 43 3.2 9.7 0.00 0.00 0.00 71 996.2
20260509090517 17 40 6.4 12.9 0.00 0.00 0.00 71 996.2
20260509085518 17 56 4.8 12.9 0.00 0.00 0.00 73 996.1
20260509084519 16 41 6.4 9.7 0.00 0.00 0.00 74 996.1
20260509083520 16 41 4.8 12.9 0.00 0.00 0.00 75 996.3
20260509082516 16 23 4.8 9.7 0.00 0.00 0.00 76 996.4
20260509081517 15 28 6.4 11.3 0.00 0.00 0.00 76 996.4
20260509080518 15 37 6.4 9.7 0.00 0.00 0.00 77 996.4
20260509075520 15 31 4.8 9.7 0.00 0.00 0.00 79 996.4
20260509074520 15 34 8.0 14.5 0.00 0.00 0.00 78 996.4
20260509073557 15 30 6.4 14.5 0.00 0.00 0.00 79 996.5
20260509072518 14 32 4.8 11.3 0.00 0.00 0.00 81 996.5
20260509071539 13 47 4.8 11.3 0.00 0.00 0.00 83 996.5
20260509070520 13 33 8.0 12.9 0.00 0.00 0.00 84 996.5
20260509065515 13 45 4.8 11.3 0.00 0.00 0.00 86 996.5
20260509064537 12 50 3.2 8.0 0.00 0.00 0.00 88 996.5
20260509063518 12 43 1.6 4.8 0.00 0.00 0.00 93 996.5
20260509062519 11 0.0 0.0 0.00 0.00 0.00 97 996.5
20260509061515 10 0.0 0.0 0.00 0.00 0.00 97 996.5
20260509060516 10 4 0.0 1.6 0.00 0.00 0.00 97 996.6
20260509055538 9 0.0 0.0 0.00 0.00 0.00 98 996.5
20260509054519 8 0.0 0.0 0.00 0.00 0.00 97 996.3
20260509053515 8 0.0 0.0 0.00 0.00 0.00 98 996.3
20260509052517 8 0.0 0.0 0.00 0.00 0.00 98 996.3
20260509051518 7 0.0 0.0 0.00 0.00 0.00 98 996.2
20260509050519 6 0.0 0.0 0.00 0.00 0.00 97 996.2
20260509045515 6 4 0.0 1.6 0.00 0.00 0.00 97 996.2
20260509044536 6 0.0 0.0 0.00 0.00 0.00 97 996.2
20260509043518 6 0.0 0.0 0.00 0.00 0.00 97 996.2
20260509042519 6 0.0 0.0 0.00 0.00 0.00 97 996.3
20260509041535 5 0.0 0.0 0.00 0.00 0.00 97 996.2
20260509040517 5 0.0 0.0 0.00 0.00 0.00 97 996.1
20260509035518 5 0.0 0.0 0.00 0.00 0.00 97 996.3
20260509034539 5 0.0 0.0 0.00 0.00 0.00 97 996.3
20260509033520 5 0.0 0.0 0.00 0.00 0.00 97 996.3
20260509032516 5 0.0 0.0 0.00 0.00 0.00 97 996.3
20260509031518 5 0.0 0.0 0.00 0.00 0.00 97 996.4
20260509030519 5 0.0 0.0 0.00 0.00 0.00 96 996.5
20260509025520 5 0.0 0.0 0.00 0.00 0.00 96 996.6
20260509024516 6 0.0 0.0 0.00 0.00 0.00 96 996.7
20260509023537 6 0.0 0.0 0.00 0.00 0.00 96 996.7
20260509022518 6 0.0 0.0 0.00 0.00 0.00 96 996.7
20260509021520 6 0.0 0.0 0.00 0.00 0.00 96 996.7
20260509020516 6 0.0 0.0 0.00 0.00 0.00 96 996.7
20260509015517 6 0.0 0.0 0.00 0.00 0.00 96 996.7
20260509014518 6 0.0 0.0 0.00 0.00 0.00 96 996.7
20260509013520 6 0.0 0.0 0.00 0.00 0.00 96 996.8
20260509012516 6 0.0 0.0 0.00 0.00 0.00 96 996.9
20260509011537 6 0.0 0.0 0.00 0.00 0.00 96 996.9
20260509010538 6 0.0 0.0 0.00 0.00 0.00 95 997.0
20260509005520 6 0.0 0.0 0.00 0.00 0.00 95 997.1
20260509004521 6 0.0 0.0 0.00 0.00 0.00 95 997.2
20260509003517 7 0.0 0.0 0.00 0.00 0.00 95 997.2
20260509002518 7 0.0 0.0 0.00 0.00 0.00 95 997.2
20260509001519 7 0.0 0.0 0.00 0.00 0.00 95 997.3
20260509000521 7 0.0 0.0 0.00 0.00 0.00 95 997.5
20260508235557 7 0.0 0.0 0.00 0.00 0.00 95 997.6
20260508234538 7 0.0 0.0 0.00 0.00 0.00 95 997.6
20260508233519 7 0.0 0.0 0.00 0.00 0.00 95 997.7
20260508232521 7 0.0 0.0 0.00 0.00 0.00 94 997.7
20260508231537 7 0.0 0.0 0.00 0.00 0.00 94 997.6
20260508230518 7 0.0 0.0 0.00 0.00 0.00 94 997.7
20260508225519 8 0.0 0.0 0.00 0.00 0.00 94 997.7
20260508224520 8 0.0 0.0 0.00 0.00 0.00 93 997.7
20260508223516 8 0.0 0.0 0.00 0.00 0.00 93 997.7
20260508222518 8 0.0 0.0 0.00 0.00 0.00 93 997.8
20260508221519 8 0.0 0.0 0.00 0.00 0.00 92 997.8
20260508220520 8 0.0 0.0 0.00 0.00 0.00 92 997.7
20260508215516 8 0.0 0.0 0.00 0.00 0.00 92 997.8
20260508214538 8 0.0 0.0 0.00 0.00 0.00 91 997.8
20260508213519 9 0.0 0.0 0.00 0.00 0.00 91 997.8
20260508212540 9 0.0 0.0 0.00 0.00 0.00 90 997.8
20260508211517 9 0.0 0.0 0.00 0.00 0.00 90 997.9
20260508210517 10 0.0 0.0 0.00 0.00 0.00 89 997.9
20260508205519 10 0.0 0.0 0.00 0.00 0.00 88 997.9
20260508204520 10 0.0 0.0 0.00 0.00 0.00 87 997.8
20260508203516 10 0.0 0.0 0.00 0.00 0.00 86 997.7
20260508202517 11 0.0 0.0 0.00 0.00 0.00 85 997.7
20260508201519 11 0.0 0.0 0.00 0.00 0.00 84 997.6
20260508200520 11 0.0 0.0 0.00 0.00 0.00 83 997.5
20260508195516 12 0.0 0.0 0.00 0.00 0.00 81 997.4
20260508194518 12 0.0 0.0 0.00 0.00 0.00 80 997.2
20260508193538 13 0.0 0.0 0.00 0.00 0.00 78 997.1
20260508192520 13 0.0 0.0 0.00 0.00 0.00 77 997.1
20260508191536 14 0.0 0.0 0.00 0.00 0.00 74 996.9
20260508190517 15 0.0 0.0 0.00 0.00 0.00 72 996.9
20260508185518 16 0.0 0.0 0.00 0.00 0.00 70 996.7
20260508184519 16 0.0 3.2 0.00 0.00 0.00 63 996.6
20260508183516 16 0.0 0.0 0.00 0.00 0.00 61 996.6
20260508182517 17 351 0.0 3.2 0.00 0.00 0.00 57 996.6
20260508181518 17 347 1.6 3.2 0.00 0.00 0.00 54 996.5
20260508180519 18 24 3.2 6.4 0.00 0.00 0.00 53 996.5
20260508175516 18 45 4.8 11.3 0.00 0.00 0.00 51 996.4
20260508174516 18 13 3.2 9.7 0.00 0.00 0.00 49 996.4
20260508173538 18 19 0.0 3.2 0.00 0.00 0.00 49 996.4
20260508172538 18 30 3.2 9.7 0.00 0.00 0.00 46 996.3
20260508171534 19 40 3.2 6.4 0.00 0.00 0.00 46 996.3
20260508170515 19 18 3.2 11.3 0.00 0.00 0.00 45 996.3
20260508165517 20 356 4.8 11.3 0.00 0.00 0.00 43 996.3
20260508164518 20 11 1.6 6.4 0.00 0.00 0.00 42 996.2
20260508163519 20 43 4.8 9.7 0.00 0.00 0.00 43 996.2
20260508162535 20 358 3.2 8.0 0.00 0.00 0.00 43 996.2
20260508161516 20 39 4.8 11.3 0.00 0.00 0.00 44 996.2
20260508160517 20 32 6.4 14.5 0.00 0.00 0.00 43 996.2
20260508155518 20 44 4.8 9.7 0.00 0.00 0.00 45 996.2
20260508154519 20 39 4.8 16.1 0.00 0.00 0.00 44 996.2
20260508153516 20 336 3.2 8.0 0.00 0.00 0.00 45 996.2
20260508152517 20 313 1.6 4.8 0.00 0.00 0.00 45 996.1